Theta_e
317 318 318 318 317 317 315 313 315 319 319 320 323 326 325 323 321 318 318 318 313 314 320 317 317 320 317 315 309 303 303 303 302 301 300 299 298 297 297 296 296 295 294 293 293 293 293 293 294 295 296 299 301 301 303 305 306 306 308 310 310 310 313 314 314 314 313 312 311 310 307 304 303 304 305 303 303 303 304 305 306 306 306 307 308 308
313 317 319 317 315 315 314 312 312 315 316 315 317 319 320 320 318 315 314 315 312 313 319 315 315 319 316 312 306 304 306 304 301 301 299 298 298 297 297 296 296 296 294 292 292 292 292 292 293 293 294 296 297 298 299 301 302 304 306 306 306 308 310 309 309 309 309 308 307 306 303 302 302 302 301 301 300 301 301 302 303 303 303 304 305 305
315 318 317 314 315 315 314 313 311 313 313 314 316 315 317 319 318 319 315 313 312 313 320 318 316 318 316 307 303 303 304 301 299 300 299 298 298 298 297 296 296 296 295 293 292 291 291 291 291 292 292 293 294 294 295 297 300 303 303 304 304 305 306 305 305 305 304 304 304 303 302 301 301 299 299 299 299 300 300 300 300 300 300 301 301 301
320 321 317 313 316 316 315 316 313 314 313 315 317 316 319 318 318 325 320 315 314 312 317 318 315 318 316 307 303 301 300 299 298 299 298 298 298 297 296 296 296 296 295 294 292 291 290 290 291 291 291 292 293 293 293 294 297 300 301 302 302 303 303 303 303 303 302 302 302 301 301 300 300 299 299 299 299 299 298 298 298 298 298 299 299 299
321 322 316 314 316 315 315 317 316 315 316 318 319 317 319 319 319 324 320 317 318 316 314 314 317 325 321 314 309 302 300 300 299 299 298 298 297 297 296 296 295 295 294 294 293 291 290 290 290 290 290 291 292 291 291 291 293 297 299 301 301 301 301 301 301 302 302 302 301 301 301 300 300 298 298 297 295 295 295 294 294 294 295 296 296 297
319 318 317 318 317 314 315 318 319 319 319 322 324 319 319 320 320 320 317 316 321 323 316 312 322 334 328 320 312 304 303 303 301 300 300 298 298 298 298 297 296 295 294 292 291 290 289 289 289 290 290 290 291 291 291 291 292 295 298 299 300 300 300 300 300 300 301 301 300 300 299 296 294 292 290 289 288 289 289 289 289 290 290 291 292 292
319 315 316 319 319 317 317 319 320 318 319 323 323 320 317 316 317 318 317 318 324 325 315 310 318 330 331 326 314 305 306 304 301 301 300 299 299 298 298 298 297 296 294 292 291 289 289 289 289 289 289 289 290 290 290 291 292 294 296 297 298 298 298 298 298 298 299 298 297 296 293 290 289 287 286 286 286 286 287 287 287 287 287 287 288 288
319 316 316 317 319 320 319 322 320 316 322 326 321 319 320 318 319 320 318 319 323 322 318 317 317 319 326 323 310 305 308 305 301 301 300 299 299 298 298 298 297 296 295 294 292 290 288 289 288 288 289 289 289 289 290 291 292 293 294 295 295 295 295 295 295 295 295 295 293 292 289 288 287 286 286 286 286 286 287 287 286 286 286 286 286 286
316 317 319 317 318 319 319 324 320 316 323 324 316 317 320 320 322 323 321 321 318 316 322 326 317 316 326 322 308 304 309 308 305 303 301 300 299 298 298 297 296 295 294 292 291 290 289 288 288 288 288 288 288 289 290 290 291 292 292 293 293 293 292 292 292 292 292 291 290 289 288 287 286 286 286 286 286 287 287 287 286 286 286 286 286 286
314 313 317 318 320 321 321 320 315 316 321 316 310 315 317 317 320 322 322 322 317 316 325 329 319 318 328 327 314 308 312 313 308 304 301 301 300 299 298 297 296 295 293 291 290 289 289 288 288 288 288 288 288 288 289 290 291 291 291 292 292 291 290 290 290 290 290 289 289 288 287 287 286 287 287 287 287 287 287 287 287 287 287 287 287 287
313 309 311 316 318 319 318 312 309 313 315 310 314 321 319 319 320 322 323 320 317 322 326 323 319 317 322 328 321 314 315 314 309 305 302 300 300 300 299 298 296 295 294 292 290 289 289 288 288 288 288 287 287 288 289 289 290 290 290 291 290 289 288 289 288 288 288 287 288 287 287 287 287 287 287 287 287 287 287 287 287 287 287 287 287 287
314 312 313 314 313 314 316 312 308 309 309 313 322 324 321 322 320 320 324 320 320 328 325 317 315 314 318 327 324 316 312 309 308 306 302 300 300 299 298 298 297 296 295 294 291 289 288 288 288 287 287 287 287 287 288 288 289 289 289 290 289 287 287 287 287 287 287 287 287 287 287 287 287 287 287 287 287 287 287 287 287 287 287 287 287 287
317 318 316 313 311 313 320 318 312 310 310 316 323 322 323 325 321 322 325 321 322 324 316 313 315 314 317 322 320 317 312 306 305 304 301 299 299 298 298 298 297 297 295 295 293 290 288 288 287 287 287 287 287 287 287 288 288 288 288 288 288 286 286 287 287 287 287 287 287 287 287 287 287 287 287 287 287 286 287 287 287 286 286 286 286 286
321 320 315 313 313 313 318 320 317 316 314 315 320 323 325 325 325 328 325 319 320 319 311 310 314 316 317 317 316 315 309 302 301 302 301 299 298 297 297 297 297 297 295 296 294 290 288 288 287 287 287 287 287 287 287 287 288 287 287 287 287 286 286 287 287 287 287 287 287 287 287 287 287 287 287 287 286 286 286 286 286 285 285 285 285 284
323 325 319 317 317 315 314 316 321 322 315 314 318 320 322 327 329 328 325 324 325 321 313 309 313 322 323 314 308 306 302 298 300 300 299 299 298 297 297 297 297 296 295 295 294 290 288 288 287 287 287 287 287 287 287 287 287 287 287 286 286 286 286 287 287 287 287 287 287 287 287 287 287 287 287 286 286 286 286 285 285 285 284 284 284 283
319 325 322 315 313 313 314 315 317 319 316 314 314 316 320 324 325 321 319 321 321 320 317 314 317 323 318 308 300 300 299 298 299 298 298 299 298 297 297 297 296 296 295 295 294 291 288 288 287 287 287 287 287 287 287 287 287 287 287 286 286 286 286 287 287 287 287 287 287 287 287 287 287 287 287 286 286 286 286 285 285 284 284 284 283 283
318 323 318 312 311 311 312 314 314 317 319 314 312 319 319 315 321 322 315 312 313 318 320 317 319 320 313 309 303 300 301 300 298 298 298 298 297 297 297 296 295 295 294 294 293 290 288 288 287 287 287 287 287 287 287 287 287 287 286 286 286 286 286 286 287 287 287 287 287 287 287 287 287 287 287 286 286 286 286 286 285 285 284 284 283 283
323 326 318 312 314 310 306 312 314 312 316 317 317 321 316 311 318 322 319 318 317 320 321 317 319 320 318 316 308 302 305 304 299 298 298 297 297 297 296 296 295 294 294 293 291 289 288 288 288 287 288 287 287 287 287 287 287 287 286 286 286 286 286 286 287 287 287 287 287 287 287 287 287 287 287 287 286 286 286 286 286 285 285 284 284 283
320 324 319 311 313 311 307 313 316 310 310 316 317 315 314 317 321 319 319 323 322 322 325 320 316 316 317 319 314 310 315 312 301 298 298 297 297 296 296 295 295 294 293 293 292 289 288 288 288 288 288 287 287 287 287 287 287 287 286 286 286 286 286 286 287 287 287 287 287 287 287 287 287 287 287 287 287 287 287 286 286 286 285 284 284 283
316 321 322 312 310 312 311 314 319 315 309 310 311 310 313 318 321 320 318 321 322 322 324 322 318 317 317 318 318 318 318 312 302 298 298 297 297 296 295 295 294 294 293 293 292 290 288 288 289 288 288 287 287 286 286 286 286 286 286 286 286 286 286 287 287 287 287 287 287 287 287 287 287 287 287 287 287 287 287 286 286 286 285 284 283 283
315 316 322 315 309 313 316 316 318 317 313 313 314 313 314 314 316 319 316 316 321 323 326 324 319 319 318 315 317 318 314 306 301 300 298 297 296 295 295 295 295 294 293 292 291 289 288 289 289 289 289 288 287 287 286 286 286 286 286 286 286 286 286 287 287 287 287 287 287 287 287 287 287 287 287 287 287 287 286 286 286 286 285 284 283 282
316 317 323 320 314 317 321 316 312 314 314 314 315 315 316 315 316 318 316 316 318 320 324 324 319 320 318 310 310 314 311 304 301 300 298 297 297 296 295 296 295 294 293 292 291 289 288 289 289 290 290 289 289 289 288 287 286 286 286 286 286 286 287 287 287 287 287 287 286 287 287 287 287 287 286 286 286 286 286 285 285 285 284 283 282 281
318 319 322 322 319 319 317 311 308 311 312 313 315 316 317 316 317 320 318 317 317 315 316 318 319 319 313 306 306 308 307 304 300 299 298 297 297 296 296 296 295 295 294 292 290 288 288 289 289 290 290 290 290 290 290 289 287 286 286 286 286 287 287 287 287 287 287 287 287 286 287 286 286 286 286 286 286 285 285 285 284 284 283 282 281 281
317 319 321 321 321 318 313 310 309 309 311 315 316 315 316 317 317 318 316 317 319 317 315 317 318 316 310 305 305 304 302 302 300 299 299 298 297 297 296 296 295 294 293 292 289 288 288 289 289 290 290 290 290 290 291 290 289 287 287 286 286 287 287 287 287 287 287 287 286 286 286 286 286 285 285 285 285 285 285 284 284 283 282 281 281 280
317 321 322 321 323 321 316 315 314 312 313 317 319 316 315 318 317 315 314 316 317 317 317 317 318 318 313 306 304 303 301 301 299 298 299 298 298 297 296 296 295 294 294 293 291 289 288 288 289 289 290 290 291 291 291 290 289 288 287 287 287 287 287 287 287 287 286 286 286 286 285 286 285 285 285 285 285 285 284 284 283 283 282 281 281 280
318 322 321 320 322 323 322 321 319 318 317 316 318 317 314 315 316 315 316 316 316 317 317 316 317 317 313 307 306 305 303 303 302 298 298 299 299 298 297 296 295 295 294 294 292 290 289 289 289 289 290 290 291 292 291 290 289 288 287 287 287 287 287 287 287 286 286 286 285 285 285 285 285 285 285 285 285 284 284 283 283 282 282 281 281 280
320 321 320 320 321 321 322 320 317 319 320 317 317 317 316 314 313 315 316 316 316 316 315 315 316 317 315 311 309 307 306 307 305 300 299 300 299 298 297 296 296 296 295 293 292 291 290 289 288 288 289 290 291 292 292 291 289 288 288 287 287 287 287 287 287 286 286 286 285 285 285 285 285 285 285 284 284 283 283 282 282 281 281 280 280 280
320 320 318 319 319 319 319 317 315 317 319 319 318 318 318 316 314 313 314 316 316 315 316 316 315 316 317 315 312 310 308 306 304 302 301 300 299 298 297 297 298 297 295 294 293 292 291 290 288 287 289 290 291 291 291 291 290 288 288 288 288 288 287 287 287 287 286 286 285 285 285 285 285 284 284 284 283 282 282 281 281 281 280 280 279 279
320 319 318 318 318 317 315 314 316 317 315 316 317 317 317 316 313 312 312 314 315 315 316 315 314 315 314 313 313 311 307 306 305 304 302 300 299 299 299 299 299 298 296 295 294 292 292 290 288 287 288 289 290 291 291 291 290 289 288 288 288 288 288 287 287 287 286 286 285 285 285 285 284 284 283 283 282 281 281 280 280 280 279 279 279 279
317 318 317 317 317 318 314 311 313 314 313 314 314 314 314 313 310 309 310 311 312 313 313 311 311 312 311 311 313 309 305 305 304 302 301 301 301 302 302 301 301 299 297 295 294 292 291 289 288 287 288 288 289 290 291 291 290 289 288 288 288 288 287 287 287 287 286 286 285 285 285 285 284 284 283 282 281 281 280 280 279 279 279 278 278 278
314 316 314 313 316 316 310 307 308 309 311 312 313 312 310 310 308 307 308 309 309 310 310 308 309 309 307 310 312 308 305 306 306 305 304 303 303 303 303 302 301 299 297 295 294 292 290 288 287 287 287 288 289 290 290 290 289 288 288 287 287 287 287 287 286 286 286 286 285 285 285 285 284 283 282 282 281 280 280 279 279 279 278 278 278 278
312 313 311 311 317 316 308 305 306 305 305 308 310 310 308 310 310 307 306 308 309 310 309 308 309 309 307 307 307 306 306 306 306 306 304 302 302 302 304 305 303 300 299 297 294 292 291 288 286 286 287 287 289 290 290 290 288 288 287 287 287 286 286 286 286 286 286 285 285 285 285 284 283 283 282 281 280 280 279 279 278 278 278 278 278 277
311 312 312 312 317 314 305 303 304 305 307 310 310 309 307 308 308 305 305 306 306 307 308 309 309 307 307 306 305 305 305 304 304 304 303 302 301 300 302 302 301 300 299 298 295 293 291 288 286 287 288 288 289 290 290 289 288 288 288 287 286 286 286 286 286 285 285 285 285 284 284 284 283 282 281 280 279 279 279 278 278 278 278 277 277 276
309 312 312 312 315 310 300 300 305 308 313 313 309 309 309 307 306 306 306 306 304 304 306 306 305 304 304 305 304 303 303 302 302 302 300 299 300 300 300 298 298 298 297 296 294 291 288 287 287 287 288 288 289 290 289 289 288 288 288 287 286 286 285 285 285 285 284 284 284 283 283 282 282 280 280 279 278 278 278 278 277 277 277 277 276 276
308 310 309 309 310 305 299 303 309 312 312 306 300 302 304 304 304 305 304 304 303 303 303 303 303 302 303 303 301 300 300 300 300 298 296 297 298 298 299 298 298 297 295 294 292 288 286 287 287 287 287 288 289 289 288 288 288 288 287 286 286 285 285 285 284 284 283 283 283 283 282 281 281 280 279 278 278 278 277 277 277 276 276 276 275 275
308 308 308 307 306 302 301 306 311 311 306 300 296 296 297 299 300 300 300 300 299 299 299 300 300 301 301 300 298 297 296 295 295 294 293 294 296 296 297 299 298 295 294 292 290 287 287 288 288 288 289 289 288 288 288 288 288 287 286 285 285 284 284 284 283 283 283 283 282 282 281 281 280 279 278 278 277 277 277 276 276 276 275 275 274 274
307 308 308 308 307 305 304 306 308 308 306 304 301 297 296 299 300 300 301 302 299 297 296 297 299 299 298 297 296 294 292 293 295 296 294 294 293 293 293 294 294 293 290 289 289 288 289 289 289 289 289 289 289 289 289 288 287 286 285 284 283 283 283 283 283 283 283 282 282 281 281 280 279 278 278 277 277 277 276 276 275 275 274 274 273 273
304 307 309 310 309 306 305 306 307 307 308 309 305 298 296 299 301 300 300 302 302 300 298 298 299 299 297 296 295 293 292 295 299 298 296 295 292 290 289 288 287 288 288 288 288 289 288 288 289 289 289 290 289 289 289 288 286 285 284 284 283 283 283 282 282 282 282 282 281 281 280 279 278 277 277 277 276 276 275 275 274 274 273 273 272 272
302 304 306 308 308 306 306 308 307 308 310 309 303 296 294 297 300 300 299 300 302 302 299 298 299 299 298 296 294 293 295 298 299 296 296 297 293 289 289 288 285 285 288 288 288 289 289 289 289 288 289 289 289 288 287 286 285 284 284 283 283 283 282 282 282 282 282 281 280 280 279 278 277 276 276 276 275 274 274 274 273 273 272 272 272 271
302 303 304 306 308 306 306 307 306 306 307 303 297 293 291 294 299 300 300 301 301 298 295 296 300 301 299 295 293 294 297 298 299 297 296 295 291 287 287 287 285 285 286 287 288 289 289 288 287 287 288 288 289 288 286 285 284 284 284 283 282 282 283 283 282 281 281 280 279 279 278 277 276 275 275 275 274 273 273 273 272 272 272 272 271 271
300 302 302 304 306 306 307 307 305 305 303 298 294 292 293 295 298 299 301 303 301 294 290 295 302 301 296 293 292 294 296 295 295 295 294 293 292 289 286 286 286 286 286 287 287 287 287 287 287 288 288 288 288 287 285 285 284 283 283 282 282 283 283 282 281 280 280 279 279 278 277 276 275 275 274 274 273 273 272 272 272 272 272 271 271 270
300 301 301 303 304 304 305 305 304 305 303 296 292 291 293 297 300 301 301 299 298 296 292 293 299 297 292 292 292 293 294 293 291 292 293 293 295 293 287 284 285 285 286 286 286 286 286 286 286 286 287 287 286 286 285 284 284 283 282 282 283 283 282 281 280 280 279 279 278 277 276 275 274 274 273 273 272 272 272 272 271 271 271 271 270 269
301 302 301 301 303 302 302 303 303 304 300 294 292 292 293 297 301 301 299 294 293 298 297 294 295 293 291 292 291 290 292 291 290 291 291 291 293 291 286 284 285 285 285 286 286 286 286 285 285 286 286 286 285 285 284 284 283 282 282 282 283 282 281 280 279 279 279 278 277 276 275 274 273 273 273 272 272 271 272 272 271 271 271 270 269 267
300 302 301 301 302 301 302 302 303 302 297 293 295 296 295 297 299 299 298 295 292 294 296 297 295 290 288 292 292 289 290 290 290 291 290 290 291 289 285 284 284 285 285 286 286 286 286 285 286 285 285 284 284 284 284 284 283 282 282 283 282 281 279 279 279 278 278 277 276 275 274 273 273 272 272 272 271 271 271 271 271 270 270 269 268 266
299 299 300 301 301 300 300 300 298 296 293 292 296 299 297 296 297 298 298 298 296 293 292 295 297 292 287 289 291 290 290 291 290 290 289 290 290 289 286 284 284 285 286 286 286 286 286 286 286 284 283 283 283 283 283 283 282 282 282 282 281 279 279 278 278 277 277 276 275 274 273 272 272 272 272 271 271 271 271 271 270 270 269 268 267 265
294 293 294 297 298 296 296 296 294 292 292 292 295 298 297 295 295 296 296 297 297 295 291 293 296 294 289 288 289 291 292 292 291 290 289 289 289 287 283 282 283 285 285 284 285 285 285 284 283 282 281 281 281 282 282 282 282 282 282 281 279 279 278 277 277 277 276 275 274 273 272 271 272 271 271 271 270 270 270 270 269 268 268 268 266 265
292 291 292 294 296 296 295 293 293 293 293 292 293 295 295 294 293 293 294 295 294 294 293 292 292 291 289 288 290 293 294 292 291 291 289 288 289 287 282 281 283 284 284 285 285 285 284 282 281 281 280 280 281 281 281 280 281 280 280 279 278 278 277 277 276 276 275 273 272 271 271 271 271 271 270 270 270 270 270 270 269 267 267 267 266 264
293 292 293 293 294 294 293 290 290 291 291 291 292 293 293 294 293 291 291 292 292 292 291 290 288 289 290 290 291 293 294 292 290 291 290 288 288 287 282 281 282 283 284 285 285 283 282 281 281 281 280 280 281 281 279 279 279 279 278 278 277 277 277 276 275 274 273 272 271 271 270 270 270 270 270 270 270 270 270 270 269 267 267 267 266 264
293 293 294 293 292 292 291 289 289 290 291 290 291 292 292 293 293 292 291 291 291 291 290 288 286 287 290 291 290 290 292 292 290 290 289 289 288 285 282 282 283 283 284 284 283 282 282 281 281 281 280 280 280 279 278 278 278 278 277 277 276 276 276 275 274 273 272 271 271 270 269 269 269 269 269 269 269 269 269 269 269 267 267 268 267 265
292 293 293 292 292 292 291 290 290 292 293 292 292 291 291 290 290 291 292 292 291 291 291 290 288 286 285 286 287 288 291 292 289 287 288 288 287 284 283 283 283 283 284 284 283 282 282 282 281 281 280 279 278 277 277 277 277 276 276 276 276 275 275 274 273 272 271 270 270 269 269 268 268 268 268 268 269 269 269 269 269 267 266 266 267 266
291 292 292 291 292 293 293 292 291 292 293 293 292 292 291 290 289 290 291 291 291 291 290 290 291 289 288 286 283 285 290 290 286 285 288 287 284 283 284 284 283 283 284 284 283 282 281 281 281 280 279 278 277 277 276 276 276 276 275 275 275 275 274 273 272 271 271 270 269 269 268 268 268 268 268 268 268 268 268 269 269 269 267 266 265 265
Wind_Speed
3 3 3 6 6 8 10 10 8 4 5 5 4 4 4 5 5 4 3 5 1 1 5 5 5 8 6 3 5 3 5 7 5 5 4 4 4 3 4 4 5 5 5 10 15 17 18 19 20 22 23 25 28 28 28 29 29 30 30 30 30 28 26 25 24 24 25 25 26 28 30 31 31 29 28 29 29 28 27 25 24 24 23 22 22 23
4 4 9 9 8 8 8 8 5 3 4 3 4 3 3 4 6 5 3 5 1 2 5 2 3 8 4 2 4 3 5 5 3 3 3 3 3 3 4 5 5 4 5 10 14 17 18 19 21 22 23 27 28 27 27 28 29 29 30 31 31 29 28 27 27 26 26 27 27 28 30 31 31 30 29 30 30 29 27 26 25 24 23 21 21 22
2 5 11 8 5 5 2 4 6 5 4 2 2 2 4 3 3 6 3 4 2 2 4 3 3 7 1 4 4 4 5 3 3 3 3 3 3 4 4 4 4 4 5 7 10 14 17 18 20 21 23 27 27 26 25 26 28 30 30 30 29 29 29 29 28 28 29 28 28 29 30 30 31 32 31 30 29 28 28 27 26 26 25 23 23 22
3 7 10 5 8 6 2 3 6 4 2 3 3 2 4 2 0 4 3 4 2 1 1 2 3 6 1 4 4 4 4 4 4 4 4 3 3 3 3 3 4 4 5 5 6 9 13 16 19 20 22 26 28 26 25 25 27 30 31 30 29 28 28 27 27 27 28 28 28 29 30 30 31 31 29 29 29 28 29 29 29 28 27 25 25 24
6 6 2 5 6 7 4 3 6 5 2 3 5 6 4 3 5 6 3 4 3 3 1 3 3 6 3 1 1 2 2 3 3 4 5 4 3 3 3 3 4 4 4 4 4 6 10 14 17 18 19 25 28 26 24 24 26 30 32 31 30 29 27 26 25 24 23 24 25 25 26 26 28 30 30 31 32 32 32 33 32 31 29 28 27 27
8 5 3 4 3 5 6 4 5 7 3 4 5 9 9 7 7 5 3 4 4 4 3 2 2 5 4 2 3 2 1 3 3 4 4 4 4 3 4 4 4 4 4 4 4 6 9 12 15 18 19 24 28 26 24 24 25 30 32 32 31 31 29 28 27 25 23 24 25 25 27 28 30 33 33 32 32 34 34 34 34 33 32 32 31 31
5 2 2 4 4 5 5 4 6 7 5 2 4 8 9 7 5 3 2 2 0 3 2 2 2 4 5 4 3 3 2 3 2 3 3 2 3 3 3 3 3 4 4 4 5 7 9 11 14 17 18 22 25 24 25 25 27 31 33 34 33 33 32 31 30 28 28 30 31 33 34 35 35 34 31 30 32 33 33 33 33 33 33 33 33 33
3 0 2 4 5 5 5 5 6 8 7 3 4 5 6 6 6 5 5 4 3 3 3 3 2 2 4 4 2 3 3 1 0 0 1 1 1 1 2 3 3 3 3 3 4 6 9 10 12 14 16 18 21 23 26 27 29 31 33 34 34 34 33 32 31 31 31 33 35 36 37 37 35 33 31 31 32 31 31 31 32 32 33 32 32 32
2 2 3 6 4 5 6 4 8 10 5 4 3 6 6 6 6 5 6 3 1 1 4 4 0 2 5 4 2 1 2 3 4 5 4 4 3 2 1 1 1 2 2 3 3 5 8 9 10 12 14 17 20 23 26 28 29 30 31 33 33 33 33 32 31 31 32 33 34 35 36 36 34 32 31 30 30 30 30 31 31 31 31 31 31 31
1 3 5 7 5 5 4 1 6 8 3 3 5 7 5 5 5 4 5 4 2 1 5 6 3 2 4 4 1 1 4 6 6 6 5 5 5 4 3 2 2 0 2 3 3 4 6 7 8 11 14 16 20 23 25 27 28 29 29 30 32 32 32 31 30 30 31 31 32 33 33 33 32 30 30 29 30 29 29 30 30 29 29 29 29 29
1 1 2 4 3 5 4 3 1 2 3 6 6 6 6 6 5 3 2 4 3 2 6 6 4 3 3 5 3 4 4 5 7 5 5 5 5 6 5 4 4 2 1 1 3 4 5 7 9 11 14 17 19 22 24 26 26 27 28 29 31 31 30 30 29 29 30 30 30 31 31 31 30 29 28 29 30 29 28 29 28 28 27 27 27 27
4 1 1 2 3 4 5 5 3 3 3 5 4 4 4 3 4 4 4 3 1 5 5 3 2 4 4 5 4 5 4 4 7 7 9 10 8 7 6 5 4 4 3 1 1 2 5 7 9 11 14 16 18 21 23 25 25 26 26 27 30 30 29 28 28 28 29 29 29 29 29 30 29 28 28 29 29 28 28 28 27 27 26 26 26 26
3 4 3 1 2 4 6 4 4 4 3 4 4 5 4 2 3 2 3 1 3 5 3 1 2 3 5 6 5 6 5 4 4 5 9 12 11 9 7 6 5 4 4 4 3 3 4 6 8 10 13 15 17 20 22 23 24 25 25 26 28 29 27 27 27 27 28 28 28 28 28 28 27 27 27 27 27 26 26 26 26 27 27 27 26 26
3 5 1 2 2 3 7 5 2 1 2 4 5 5 4 2 1 2 3 2 4 4 2 1 1 1 4 4 4 5 4 4 4 4 6 10 11 10 8 6 5 4 4 4 4 4 5 6 7 10 12 14 17 19 21 22 23 24 24 25 27 27 26 25 26 26 27 28 27 27 27 26 26 26 27 26 26 25 25 25 25 26 26 26 26 26
3 4 3 5 2 4 8 6 5 6 4 3 4 5 4 4 4 4 4 3 4 2 2 2 1 3 4 2 3 4 3 3 4 5 6 7 7 7 6 5 5 5 5 4 4 5 6 8 9 10 12 14 16 18 20 21 22 23 23 24 26 26 24 24 25 25 26 27 26 26 26 26 26 26 26 26 25 24 24 24 24 24 24 24 24 24
3 5 5 3 1 5 7 3 5 6 3 2 2 4 3 4 4 1 3 5 3 2 3 2 3 4 4 1 3 2 2 3 2 2 6 7 6 6 5 6 6 6 5 5 4 5 8 10 10 11 12 14 16 18 19 20 21 21 22 23 24 24 23 23 23 24 24 25 24 25 25 25 24 24 25 24 24 24 24 24 24 24 24 24 24 25
2 4 5 2 2 3 3 2 3 3 3 2 2 3 4 3 6 3 2 1 3 1 4 2 3 4 1 1 3 2 2 2 2 3 6 8 7 7 7 7 7 7 6 6 5 6 9 11 11 12 13 14 16 17 18 19 19 20 21 21 22 22 21 21 21 22 22 22 22 23 23 22 22 22 23 23 23 23 22 23 23 23 23 23 24 25
4 3 4 1 1 0 1 4 4 2 3 5 3 5 3 2 4 3 1 3 3 3 4 1 4 4 1 2 2 2 2 3 3 4 6 6 7 8 9 8 8 7 6 6 6 8 11 12 13 13 13 14 16 17 18 18 18 18 18 19 20 20 20 20 19 19 19 19 20 20 20 20 20 20 21 21 21 20 20 21 22 22 22 22 22 23
4 2 5 0 2 1 2 4 3 4 3 5 4 3 3 3 2 2 2 2 1 3 4 2 3 4 5 4 2 4 7 8 7 6 7 9 10 10 11 10 8 7 6 6 6 7 10 13 14 14 14 15 16 17 17 18 17 18 17 17 18 18 18 18 17 17 17 16 17 17 17 17 17 17 18 18 19 20 21 22 22 22 22 22 22 23
3 2 3 2 1 1 2 2 4 2 1 3 1 1 2 2 3 2 2 3 2 2 3 4 3 3 5 6 7 10 11 10 10 9 10 12 13 12 11 9 8 7 7 7 6 7 10 15 16 17 17 16 17 17 17 17 17 17 17 17 17 17 16 16 15 15 14 14 14 13 13 13 14 15 16 17 18 20 21 22 23 23 22 23 23 24
3 2 3 2 2 1 2 2 5 6 3 2 2 3 2 1 2 1 1 3 3 3 2 3 5 5 4 3 8 9 8 9 12 12 11 12 12 12 10 9 9 8 8 8 7 8 12 16 18 18 17 16 17 16 16 16 16 16 16 16 16 15 15 14 13 12 12 11 10 10 10 10 11 12 13 14 16 18 19 21 22 23 23 23 24 25
2 2 3 2 1 3 4 4 5 6 5 4 4 5 6 4 3 2 4 1 2 2 4 3 6 7 3 2 4 4 4 7 10 11 10 11 13 12 11 10 9 9 10 9 7 9 13 17 19 19 18 17 17 17 16 15 15 15 16 15 14 14 13 13 12 11 10 9 7 7 7 7 8 9 10 11 13 16 18 20 22 23 23 24 25 25
3 3 3 3 3 4 5 3 3 4 3 3 2 3 4 3 4 5 6 3 2 1 2 3 3 5 2 2 3 4 5 5 8 10 10 10 12 12 11 10 9 10 10 7 8 11 14 17 18 19 19 19 19 18 17 16 15 15 15 14 13 12 12 11 9 8 7 6 4 3 3 4 5 6 8 11 13 16 18 20 22 23 24 24 25 26
2 3 2 1 3 2 3 2 1 1 2 2 3 2 4 3 2 3 4 2 3 4 2 2 4 4 1 1 2 3 4 4 6 10 10 9 9 10 11 10 10 10 7 6 7 10 14 16 17 18 19 20 20 19 18 16 15 14 13 13 12 11 10 9 7 6 5 4 2 0 1 3 4 6 9 11 14 16 18 20 22 23 25 25 26 27
3 3 4 1 2 3 2 1 1 1 2 3 3 2 3 4 4 2 1 2 2 5 4 2 6 5 1 1 1 3 1 3 5 7 7 7 7 8 9 10 9 7 6 6 7 8 11 14 16 18 20 21 21 20 18 17 15 14 13 12 11 10 9 8 7 6 5 5 4 3 3 4 5 7 10 12 14 17 19 21 22 24 25 26 27 28
4 3 5 5 6 6 5 4 4 3 3 2 3 4 5 6 7 3 2 2 4 4 6 5 8 4 3 1 1 3 2 3 5 5 4 5 6 8 9 8 7 6 7 9 9 8 10 12 15 18 20 21 21 20 19 18 16 15 14 13 12 11 10 10 10 9 7 7 7 6 5 5 7 9 11 13 15 17 19 21 23 24 25 26 27 28
3 1 5 7 9 9 5 3 2 4 5 4 5 6 7 8 8 5 2 4 5 3 5 9 6 2 3 3 2 2 3 6 6 6 6 7 7 8 7 7 6 6 8 8 7 7 8 11 15 18 20 21 22 21 20 19 17 17 16 15 14 13 13 12 12 11 10 10 9 8 7 7 8 10 12 14 15 17 19 20 22 23 24 26 26 27
4 2 6 8 9 6 3 3 2 3 4 6 6 8 10 9 9 9 8 7 5 4 8 9 4 4 7 6 6 7 7 7 6 8 9 8 7 6 5 6 7 7 7 6 7 8 9 10 12 16 20 22 22 22 21 20 19 18 17 16 16 15 15 15 14 14 13 13 11 10 9 8 9 11 13 14 16 17 19 20 22 23 23 24 25 26
4 4 6 6 8 8 3 4 5 4 3 5 7 11 13 12 12 12 12 11 8 8 12 6 6 8 8 5 8 9 8 8 8 7 7 5 5 5 5 6 8 8 7 7 8 10 10 10 11 16 21 22 22 22 22 22 21 20 19 18 18 17 16 16 16 15 14 13 12 10 9 9 10 12 14 15 17 18 19 20 21 22 23 24 24 25
3 4 4 5 8 9 3 2 4 6 5 5 8 12 12 11 11 11 12 12 9 9 10 2 4 10 6 5 7 7 5 5 4 1 2 3 4 6 6 7 8 8 8 9 10 10 10 10 14 18 20 21 22 23 24 24 23 22 21 20 19 17 16 15 15 15 14 13 11 10 9 10 12 14 15 17 18 19 20 21 22 23 23 24 24 25
2 2 2 4 4 5 1 2 2 4 5 6 11 13 7 5 7 9 10 5 3 7 9 4 7 11 4 6 6 4 3 3 3 3 4 4 5 5 6 7 8 7 7 8 9 9 8 10 14 17 19 22 25 25 25 25 24 23 22 20 18 17 15 14 14 14 13 11 10 10 10 12 13 15 17 18 19 20 21 22 22 23 23 24 24 25
3 1 2 3 4 4 2 4 3 2 1 6 15 13 6 6 7 7 6 6 7 9 9 6 9 10 3 5 4 5 5 5 6 7 5 5 5 6 7 8 8 7 7 8 8 8 8 10 13 18 21 24 26 26 27 27 25 23 22 20 19 17 16 15 14 13 12 10 10 10 11 13 15 16 17 18 19 20 21 22 22 22 23 24 24 25
5 4 2 4 5 2 0 4 5 3 1 8 13 10 10 11 8 2 3 8 10 7 6 7 9 6 2 5 4 6 7 7 7 7 6 7 7 6 8 8 7 7 8 8 8 8 9 12 17 22 25 26 27 28 29 28 26 24 23 21 20 18 17 15 13 12 11 10 10 11 12 14 15 16 17 17 18 19 20 21 22 22 23 24 24 25
4 6 4 4 4 1 0 3 5 3 6 7 3 5 12 15 12 9 10 12 9 7 6 6 4 0 4 6 7 8 8 7 7 7 6 6 6 6 7 7 7 8 9 8 8 8 11 15 19 23 24 26 27 28 27 25 24 23 22 21 20 19 17 15 14 13 11 10 10 11 12 14 15 16 17 17 18 19 20 20 21 21 22 23 24 24
5 5 3 2 2 2 2 3 4 6 7 3 4 1 5 9 12 12 11 9 8 9 9 7 5 5 7 9 8 7 6 6 6 6 5 5 6 7 6 7 9 9 8 7 7 8 13 17 18 20 22 25 26 25 24 23 23 22 22 22 21 19 18 16 14 12 11 10 10 11 12 14 15 16 17 18 18 19 19 20 21 21 22 23 23 24
6 5 2 2 2 2 3 5 6 4 2 2 4 4 1 4 4 3 4 7 9 10 9 8 9 10 11 10 6 4 4 3 3 4 6 6 7 7 8 9 9 9 9 10 11 14 18 21 23 24 25 25 24 23 23 23 23 23 23 23 21 19 18 16 14 12 11 10 11 12 13 15 16 17 17 18 19 19 20 20 20 21 22 23 23 23
6 5 2 2 3 3 3 6 4 4 4 3 2 2 3 5 5 5 3 7 8 7 8 8 10 13 12 7 3 2 2 2 5 5 6 7 8 8 9 9 8 9 12 14 16 18 21 23 25 25 24 22 22 22 23 24 25 25 24 23 22 19 17 16 14 13 11 11 11 12 14 15 16 17 18 18 19 19 20 20 20 21 21 23 24 24
2 4 5 5 3 3 3 3 1 3 7 6 4 3 2 4 6 7 4 6 6 5 10 11 11 13 10 5 3 4 4 2 5 6 5 6 6 6 7 9 10 12 14 15 16 16 17 20 21 21 20 20 21 23 24 25 26 25 25 23 21 19 18 16 15 14 12 11 12 13 15 16 16 17 17 18 18 19 19 19 20 20 20 21 23 24
3 0 2 3 2 2 3 3 4 5 5 2 3 2 1 3 6 7 2 6 6 6 10 10 10 10 8 5 5 5 5 1 5 7 4 5 6 6 6 8 11 14 15 14 15 17 17 18 18 17 18 20 21 23 24 25 25 25 24 23 21 19 19 18 16 13 12 12 13 14 15 15 16 16 17 17 18 18 19 19 19 19 20 21 22 24
2 2 1 3 3 4 4 3 3 4 4 1 5 3 2 3 7 7 3 8 5 6 7 8 9 9 6 6 6 5 5 6 6 6 5 5 6 7 9 10 11 14 16 15 16 16 16 17 18 18 20 22 24 24 24 25 25 24 23 22 20 20 20 18 14 12 12 13 13 14 15 15 16 16 16 17 18 18 18 18 19 19 20 21 22 23
1 1 1 3 4 6 7 5 3 4 4 3 5 6 4 2 6 2 7 7 4 5 6 7 9 7 6 7 6 5 7 8 5 2 3 5 4 6 11 14 14 14 14 15 16 15 15 18 21 22 23 25 25 25 25 25 25 25 23 21 22 23 20 16 14 13 13 14 14 15 16 15 15 15 16 16 17 18 17 17 18 20 21 21 22 23
2 1 1 2 3 4 5 4 3 5 4 5 5 3 4 3 1 5 6 3 5 8 7 7 7 6 7 8 8 7 8 7 4 2 3 5 5 5 8 10 10 10 12 13 14 15 17 19 21 23 23 24 25 26 27 27 26 25 24 23 25 24 19 16 15 14 14 14 15 16 16 15 15 15 16 16 16 18 18 17 18 20 20 21 22 23
4 3 1 3 3 1 2 3 4 5 3 11 10 2 2 4 5 4 2 1 4 6 7 7 7 6 7 8 9 9 8 6 5 5 5 5 5 6 7 8 9 11 12 13 14 18 20 21 22 25 25 25 26 27 28 28 28 26 25 27 27 23 18 17 16 15 15 16 16 16 15 15 15 15 15 15 16 17 18 18 18 19 19 20 21 22
3 4 3 4 3 4 4 6 4 2 4 11 11 5 5 6 4 5 5 4 4 4 5 6 6 7 9 9 9 9 8 6 6 6 6 5 6 7 8 9 11 12 14 16 18 20 22 24 25 26 26 26 28 29 29 30 29 28 28 29 26 21 19 18 17 16 16 17 16 16 15 15 14 14 14 15 16 17 18 18 18 19 18 18 19 21
4 4 4 4 3 4 5 5 3 1 5 9 6 4 7 7 5 5 7 5 4 5 5 5 6 8 9 9 8 7 6 7 7 6 6 6 7 7 9 11 14 16 17 19 19 20 23 26 26 25 26 27 28 30 31 32 31 30 30 29 24 21 20 18 17 17 17 16 16 16 15 14 14 14 14 15 15 17 17 17 18 19 18 18 19 20
2 2 3 2 2 4 3 3 2 1 3 7 6 4 6 6 4 5 5 4 5 5 6 6 7 8 9 8 7 6 6 7 7 7 7 7 7 8 9 11 14 17 18 18 19 21 24 24 23 23 25 27 29 31 32 32 32 31 30 26 23 21 20 18 17 17 17 16 16 15 14 15 15 14 14 15 15 16 16 17 18 19 18 18 19 19
2 2 3 1 2 4 3 2 4 3 4 8 8 6 5 4 5 6 5 5 6 6 7 7 6 5 6 8 8 8 8 8 7 7 7 6 7 8 8 11 15 18 20 22 24 24 23 23 22 24 26 28 30 32 33 33 33 31 28 24 22 21 19 18 18 18 17 16 15 15 15 15 15 14 14 14 15 15 16 16 17 18 18 18 19 19
2 3 3 3 4 3 2 2 1 1 2 5 6 6 6 7 7 6 6 6 6 4 5 6 4 4 5 7 9 9 8 7 8 8 7 6 7 7 9 12 17 19 21 23 24 22 21 23 25 27 28 31 33 34 34 34 33 31 28 24 23 21 19 19 18 18 17 16 15 15 15 15 15 15 15 15 15 15 15 15 16 18 18 17 17 19
2 3 3 3 4 2 1 1 1 4 4 5 7 7 8 8 7 6 6 6 6 5 4 5 5 6 7 7 8 7 7 8 8 7 8 7 7 7 11 15 18 20 21 21 20 20 22 25 27 29 30 31 32 32 34 34 32 31 28 25 23 21 19 19 18 17 16 16 16 16 16 15 15 15 15 15 16 15 15 15 16 17 19 17 16 17
3 4 3 3 2 4 3 5 4 2 3 6 8 11 12 10 6 6 6 6 7 8 7 7 7 7 7 9 8 7 7 9 8 7 8 8 9 11 14 16 18 19 20 19 18 20 23 27 28 29 29 29 28 29 32 33 32 30 28 26 23 21 20 19 18 18 17 17 16 16 16 16 15 15 15 16 16 16 15 15 14 15 18 18 15 14
5 7 6 5 4 5 6 8 8 6 5 6 8 10 11 8 7 7 9 9 9 9 8 8 8 7 8 10 11 11 9 9 10 9 8 9 13 16 17 17 18 19 20 19 18 20 24 26 27 28 29 29 28 29 30 32 31 30 29 26 23 21 20 19 19 19 18 17 17 16 16 16 15 15 15 16 16 16 16 16 14 12 14 14 12 11
Wind_Direction
113 128 200 220 204 196 203 203 202 177 135 140 137 142 187 219 260 253 251 282 211 157 269 221 214 255 266 353 6 359 49 64 64 67 64 52 49 35 38 36 29 36 26 23 30 35 40 45 51 56 61 67 70 68 70 73 74 74 77 78 78 79 84 86 85 85 85 85 84 82 80 78 75 74 73 69 66 63 61 59 56 54 51 49 48 49
90 165 228 232 200 193 207 204 190 148 128 119 143 183 244 224 251 261 243 298 327 177 260 219 231 261 246 44 353 13 66 50 40 79 75 60 60 40 41 36 26 22 20 28 29 32 38 44 50 54 57 65 66 63 67 72 75 78 80 79 79 80 82 82 82 84 83 83 85 85 82 80 76 72 70 69 66 64 62 59 56 54 51 49 48 47
83 216 240 232 157 134 121 172 182 198 193 169 135 181 264 236 268 286 284 338 11 175 264 323 301 275 262 73 27 36 72 57 34 69 67 61 64 45 42 36 30 26 23 25 20 25 34 41 49 52 55 63 65 62 64 70 77 82 83 82 83 84 85 86 87 88 88 88 89 88 86 83 79 74 71 70 67 64 62 60 57 55 53 52 51 50
184 244 245 197 140 142 107 130 152 162 202 195 156 178 247 233 320 282 294 338 11 124 267 18 330 287 282 80 56 46 81 89 59 64 59 57 70 58 62 52 38 37 27 21 13 19 33 43 50 52 55 65 68 63 61 66 74 81 83 85 86 87 88 88 89 91 92 93 92 91 89 86 83 78 75 72 67 64 62 60 57 55 54 53 53 52
226 245 213 113 135 167 171 146 148 153 225 239 202 202 223 216 213 231 287 331 352 14 46 83 348 302 277 211 108 72 90 83 48 58 52 33 39 47 63 53 37 40 24 15 7 7 30 44 52 56 59 68 70 65 61 62 71 79 84 86 87 87 88 89 90 93 97 99 98 97 93 87 81 73 68 66 63 63 63 61 60 58 57 56 55 54
251 239 124 102 105 151 167 188 182 168 191 278 232 209 214 218 222 237 342 8 10 346 345 50 325 294 310 293 189 165 73 48 25 45 44 14 17 29 42 34 18 27 17 11 10 10 32 45 54 59 61 69 73 71 69 69 73 81 86 87 88 88 88 90 91 94 98 97 95 93 87 81 76 68 63 63 64 65 65 65 64 63 61 60 59 57
258 266 129 158 146 141 174 222 218 168 144 271 246 204 207 205 197 195 138 87 106 262 315 41 186 254 314 312 213 168 95 58 32 42 34 359 15 25 27 21 10 13 7 5 14 22 35 43 52 58 60 70 77 79 79 79 79 83 87 87 88 87 87 88 89 90 90 89 88 87 84 81 79 76 71 70 71 70 70 69 67 64 62 61 59 58
207 92 79 151 147 160 198 236 218 164 138 231 237 153 158 171 179 180 154 153 215 252 325 6 134 229 287 285 243 155 127 76 353 9 333 277 341 16 9 12 14 8 358 359 7 21 35 43 52 60 66 74 82 86 87 86 84 85 87 88 88 87 87 87 87 87 87 88 89 88 87 83 81 80 77 75 74 72 71 69 66 63 61 59 58 57
154 164 192 170 158 197 216 229 188 160 153 240 195 125 132 150 157 144 130 150 258 14 310 303 124 229 264 275 313 130 197 246 223 215 216 210 214 202 196 350 13 4 359 3 6 21 37 48 60 71 79 83 88 90 90 91 90 90 90 91 90 89 88 88 87 87 87 88 89 88 87 84 81 80 78 76 73 70 68 65 63 60 59 57 55 54
91 213 202 158 163 211 220 278 185 171 189 198 132 98 80 83 89 91 111 123 68 62 246 245 193 206 270 284 287 160 250 243 208 208 211 201 209 204 202 208 185 91 19 11 24 41 50 65 77 86 92 92 93 95 95 96 96 95 94 93 92 90 90 89 89 88 88 88 87 86 86 84 81 79 76 74 69 66 64 62 59 56 55 53 52 50
321 292 171 144 175 194 146 66 142 185 159 140 110 69 50 37 42 43 60 93 83 263 243 232 196 181 261 278 230 191 230 204 168 182 202 198 207 207 209 206 187 173 133 14 34 62 77 92 99 101 99 98 99 100 101 100 100 98 97 95 93 93 93 92 91 91 89 88 86 85 84 82 80 76 73 69 65 61 59 58 56 53 52 50 48 46
334 335 236 200 162 131 100 67 33 14 82 111 95 82 74 359 13 26 359 47 146 251 256 248 179 158 210 258 236 210 226 194 168 179 185 187 197 200 203 199 186 183 175 164 96 99 107 110 112 109 106 105 106 105 104 103 103 101 100 98 97 95 95 95 93 92 90 87 85 84 82 80 76 72 69 66 62 58 55 53 50 48 46 45 43 41
296 240 258 287 177 139 110 79 36 12 33 86 97 102 101 342 357 353 308 269 222 248 260 246 154 175 226 245 224 196 200 211 210 200 183 182 188 191 194 191 181 182 179 176 179 163 138 130 126 119 116 115 113 110 109 109 108 106 105 103 101 99 98 98 96 94 91 88 85 83 80 78 75 72 68 65 61 57 53 50 46 43 40 38 36 34
283 287 276 150 244 181 149 146 156 197 169 150 144 132 130 122 108 259 265 270 264 258 264 269 164 217 263 260 216 192 201 221 229 230 204 188 185 184 184 179 175 184 189 186 187 181 166 157 148 136 129 125 120 117 116 115 114 112 110 108 106 105 104 102 99 96 93 89 85 82 79 76 73 70 66 63 59 55 51 48 44 41 37 35 32 30
211 286 213 178 221 183 173 178 157 145 150 179 161 132 144 157 174 222 220 210 249 273 299 301 199 191 211 238 234 226 247 260 244 229 205 188 180 168 160 162 177 192 198 195 187 187 185 175 162 150 141 133 128 126 123 122 120 117 115 112 111 110 108 105 101 97 93 89 84 79 75 71 68 65 62 59 54 50 47 44 41 37 33 30 28 25
174 263 252 242 262 159 173 190 118 114 131 208 130 111 169 187 157 177 199 176 182 292 293 243 224 219 192 220 290 285 297 322 328 180 169 170 163 151 159 178 191 200 198 193 188 191 194 185 174 163 152 143 137 133 131 129 127 124 121 118 116 113 111 107 102 98 93 89 83 77 72 67 64 60 57 53 49 44 41 38 35 32 28 24 21 17
137 272 279 333 14 124 165 186 113 129 182 163 127 173 218 184 119 114 252 59 81 258 267 198 238 288 330 272 306 13 350 340 32 124 160 167 162 165 185 196 199 203 195 192 194 193 193 190 184 173 160 151 146 141 138 136 132 130 127 124 120 117 114 109 103 99 93 87 81 74 68 63 58 54 50 47 43 38 35 32 29 26 22 19 15 12
153 259 287 116 124 315 174 142 85 49 130 126 176 212 203 130 97 105 232 347 42 243 272 224 226 257 209 244 315 29 282 256 210 179 169 170 174 186 199 202 203 201 192 197 200 195 196 195 190 180 168 158 151 146 142 139 136 134 131 127 123 120 116 112 106 100 91 83 77 70 65 59 54 50 46 41 37 31 28 25 22 19 16 13 9 6
144 217 292 41 157 304 19 114 90 11 72 127 190 195 116 149 175 101 166 227 234 244 283 298 257 242 198 202 206 204 224 218 197 188 184 186 191 197 203 204 203 194 188 201 201 195 198 198 193 184 173 163 155 149 146 143 141 138 135 130 126 121 117 113 108 100 90 81 75 69 64 59 53 48 42 37 31 25 21 18 14 11 8 5 2 359
118 178 268 312 239 247 35 112 172 220 48 81 113 112 79 163 178 156 155 170 179 220 275 301 304 265 224 199 178 194 210 194 179 186 197 199 199 200 200 197 196 193 194 201 198 194 196 198 196 187 177 167 158 153 150 148 146 144 140 135 130 124 120 115 108 101 93 84 77 70 64 58 50 43 35 29 23 19 16 12 7 4 1 358 355 354
100 183 230 301 311 180 171 204 186 182 170 135 144 177 199 152 137 195 204 123 135 174 212 271 283 268 253 199 180 198 210 186 180 188 195 201 202 202 202 198 194 193 199 201 194 191 194 197 197 190 181 172 163 159 156 154 152 148 144 141 135 131 127 121 115 108 99 91 81 70 60 49 41 35 26 20 16 12 9 6 2 359 356 353 351 350
158 169 178 195 201 182 226 238 188 180 178 169 187 197 191 171 135 188 243 190 121 176 184 202 265 269 253 200 191 209 214 193 189 187 189 198 200 199 202 200 193 194 202 202 190 187 192 195 196 191 185 180 175 171 168 164 160 155 152 149 144 139 134 129 124 116 105 95 82 65 50 35 27 21 13 9 7 5 3 1 358 355 352 350 349 348
147 119 136 195 209 210 240 254 184 186 166 152 215 208 175 170 143 176 227 227 147 214 163 142 260 275 255 220 228 239 236 211 191 185 190 200 199 197 199 197 198 204 203 191 183 189 193 194 194 192 189 189 187 184 180 176 170 165 161 156 151 147 142 138 131 122 110 100 83 56 31 15 5 359 358 358 358 358 357 355 353 351 348 347 346 345
140 123 131 254 298 312 310 333 33 146 131 171 235 177 161 192 169 178 214 170 160 213 165 132 250 265 279 240 252 263 247 209 191 190 193 198 197 196 198 199 204 204 190 173 183 193 194 193 194 195 196 196 195 192 188 185 181 175 170 164 161 158 154 150 146 141 140 142 137 172 308 330 338 341 345 348 349 350 349 349 348 346 343 342 342 342
185 159 138 159 306 335 338 320 265 245 194 207 217 176 184 175 113 87 126 113 212 215 162 186 248 248 282 338 22 15 43 182 206 203 194 195 196 197 202 208 206 189 173 180 189 190 191 194 197 200 201 199 197 195 193 191 189 184 180 177 174 172 171 173 175 177 181 190 205 236 268 296 314 326 333 337 340 341 342 342 342 340 339 337 338 339
172 171 157 173 209 227 224 207 207 204 184 198 197 185 200 185 162 164 159 177 232 195 151 216 247 256 315 326 59 39 70 196 222 217 209 213 203 201 207 207 196 183 190 196 192 187 190 196 202 204 202 199 197 197 197 196 193 191 190 190 187 187 190 194 198 200 204 212 225 243 262 283 302 316 325 330 333 334 336 336 336 335 334 333 334 334
124 186 200 203 218 221 209 204 191 134 142 188 200 189 200 200 189 183 168 204 219 175 191 231 232 231 277 250 225 245 207 210 215 197 206 222 214 211 211 201 192 196 203 196 183 181 189 200 206 205 202 200 200 201 202 200 198 196 197 198 198 201 205 208 212 215 218 222 230 244 260 277 296 310 318 323 326 328 330 330 330 330 329 329 331 331
106 225 221 213 237 236 160 161 185 131 161 199 206 216 224 215 194 195 212 215 177 174 238 235 164 185 239 218 206 223 212 213 218 203 208 217 209 201 193 187 196 203 199 185 179 188 197 204 205 202 202 202 202 204 205 203 204 203 202 205 208 212 215 217 219 221 223 226 232 243 257 276 294 306 313 318 321 323 325 325 326 326 327 328 329 330
128 229 216 187 244 255 190 161 177 167 199 215 215 227 228 218 203 202 219 219 187 210 248 237 153 208 238 199 196 215 208 204 210 204 204 196 170 166 171 186 203 207 199 193 196 201 205 205 199 199 204 205 203 203 204 204 206 207 208 212 216 219 221 223 223 222 222 224 230 242 258 278 293 302 308 313 316 319 321 323 325 325 327 328 329 330
143 230 205 173 237 253 226 163 173 183 204 220 228 231 225 217 207 200 216 222 210 233 261 267 198 234 237 175 198 218 204 200 219 225 175 169 167 173 183 199 211 212 206 204 208 210 208 205 202 201 203 205 204 203 202 204 206 209 212 216 218 221 221 221 219 217 217 220 229 244 263 279 290 298 305 311 315 318 320 322 324 325 327 328 328 328
190 214 153 148 223 253 186 121 148 199 206 223 242 239 210 182 203 207 215 211 196 250 257 248 250 257 233 165 199 228 170 164 233 251 223 214 205 191 197 213 221 219 213 214 217 215 209 206 205 203 203 205 206 204 202 204 207 210 213 216 217 218 215 212 209 209 212 221 233 250 267 280 291 300 306 310 313 315 317 319 321 323 325 325 325 326
192 204 74 125 206 239 175 147 139 75 40 262 256 243 185 175 209 203 198 194 198 224 235 233 248 257 226 148 185 232 203 192 223 230 222 228 214 195 208 223 227 224 221 222 220 213 208 206 204 205 206 207 206 203 203 206 207 209 212 213 213 210 206 204 205 209 216 227 242 257 274 287 295 301 304 307 308 311 314 316 319 321 322 323 324 325
169 163 131 173 201 235 160 150 137 103 354 264 255 225 188 207 223 159 187 222 213 200 205 225 240 247 184 146 188 231 223 217 231 228 221 226 215 206 222 230 231 231 228 226 223 214 209 208 208 208 208 207 206 205 206 207 207 210 213 212 208 204 202 205 208 214 221 230 247 265 280 290 295 298 300 304 306 309 313 315 317 320 321 322 323 323
173 173 184 191 186 190 170 123 121 164 230 250 251 174 187 206 209 201 221 228 209 191 210 237 260 199 151 180 210 226 220 212 224 229 225 217 203 210 230 233 231 233 232 230 226 219 215 215 214 213 211 209 208 207 208 209 211 214 214 210 205 203 204 208 209 213 222 235 253 270 282 288 293 296 300 304 307 309 311 313 316 319 319 319 320 322
175 186 193 154 137 145 122 125 165 220 234 260 3 0 200 198 195 204 230 240 218 214 225 241 262 246 221 220 221 219 219 223 235 241 233 210 195 201 218 228 228 229 231 231 225 221 218 214 212 212 211 210 209 208 208 209 212 213 210 205 203 203 204 207 209 214 226 241 258 272 282 289 292 296 300 303 305 307 309 311 314 316 317 317 319 321
164 176 171 116 138 127 126 182 212 251 286 1 352 340 38 98 130 177 265 265 234 219 213 217 235 243 242 241 229 195 202 243 279 256 224 214 210 202 205 219 221 218 219 217 213 214 215 211 209 210 210 209 208 208 209 210 210 208 204 200 201 202 204 207 213 221 232 247 263 274 282 288 290 294 297 300 303 305 307 310 314 316 317 317 318 321
166 160 148 187 188 143 170 214 242 332 308 248 267 270 169 143 144 155 219 257 242 208 185 191 221 239 244 240 211 128 107 28 327 280 224 213 215 207 212 222 218 216 221 221 219 220 218 214 210 210 210 209 209 211 212 211 207 202 197 196 198 202 206 211 218 227 239 252 265 275 280 284 286 290 294 297 300 303 306 310 313 315 316 316 317 319
195 172 176 207 209 121 150 226 264 284 257 233 206 216 181 152 153 148 178 265 269 206 181 186 209 231 238 217 149 99 77 44 299 275 237 223 223 208 219 236 231 228 230 226 221 221 218 214 212 211 211 210 210 212 211 207 202 196 194 196 200 204 209 215 222 231 243 255 265 273 277 280 284 288 292 295 299 302 305 308 311 313 315 315 315 316
1 11 164 192 193 129 167 218 216 230 256 238 182 214 320 151 135 103 65 279 261 208 186 184 201 221 223 196 156 119 103 160 261 264 243 231 229 205 207 231 234 234 236 229 219 216 213 208 206 206 205 205 207 208 206 202 198 195 197 200 203 208 215 221 228 237 248 258 266 272 275 278 283 287 291 294 297 299 302 306 309 311 312 312 312 312
15 6 115 183 196 196 207 229 236 245 267 194 160 179 255 190 117 84 316 273 247 208 185 173 197 216 200 166 148 136 157 197 233 247 222 205 214 209 208 220 226 227 230 227 219 215 210 202 197 197 200 205 209 208 204 200 197 198 203 205 208 215 222 226 234 243 251 258 265 270 274 278 282 286 289 292 294 296 300 305 308 310 310 310 310 309
44 343 230 208 216 221 224 236 267 259 242 194 165 170 182 129 81 114 245 245 196 197 195 176 195 207 168 151 157 177 207 215 214 203 171 167 185 214 220 227 232 233 234 231 223 214 207 204 203 204 208 211 211 208 204 200 200 203 207 209 215 223 227 231 237 244 250 259 265 268 272 276 280 283 286 288 292 295 300 306 308 308 308 309 308 308
162 166 263 214 210 226 231 238 277 270 221 141 133 167 165 132 151 224 232 215 164 182 195 197 202 189 162 171 186 201 221 227 214 193 189 186 197 232 235 227 225 229 234 233 228 218 211 208 207 208 213 214 212 209 206 203 204 207 208 214 223 228 228 230 237 244 251 258 263 266 270 274 276 279 283 287 292 296 300 305 305 305 306 307 307 308
169 152 200 214 184 153 223 222 241 268 203 130 122 128 229 199 207 202 170 187 190 175 174 197 208 190 177 190 205 215 228 238 230 230 233 224 225 244 247 227 215 221 224 222 222 218 211 209 210 212 214 215 213 211 208 206 208 210 212 220 227 227 226 230 237 243 250 255 260 263 266 269 271 276 282 287 290 293 298 302 302 301 303 305 306 308
186 163 195 224 184 148 191 217 217 219 169 152 143 160 212 203 183 152 147 176 213 189 171 191 211 202 190 195 207 215 226 242 241 236 236 237 234 236 242 235 226 226 226 222 223 219 211 209 214 215 215 215 214 212 210 210 211 211 216 224 226 222 223 230 235 241 248 252 256 259 262 265 269 274 279 283 287 290 294 299 300 299 302 304 306 306
222 178 175 199 202 180 188 210 217 128 170 180 171 175 199 198 177 157 155 163 197 203 181 185 209 206 197 199 203 203 214 232 238 234 228 234 239 235 236 235 229 227 228 227 225 220 214 214 216 214 212 214 214 212 212 213 212 214 219 224 223 220 224 231 235 241 247 250 253 256 260 263 266 272 276 279 284 288 293 298 298 299 302 304 304 303
247 139 142 150 246 258 236 176 158 132 188 200 212 214 200 195 183 170 167 182 201 193 180 194 209 202 193 192 195 203 219 225 231 238 235 237 248 244 238 239 238 235 232 229 227 223 218 216 216 213 212 214 214 213 213 214 214 217 222 223 220 222 227 232 237 242 246 249 252 255 258 262 265 269 273 276 281 286 292 297 298 299 302 303 302 301
275 142 154 184 232 259 264 161 148 163 189 197 213 233 238 236 219 195 195 219 216 192 192 208 212 185 174 179 189 208 222 218 218 236 241 234 241 245 237 235 239 238 233 230 230 227 219 213 212 213 214 215 216 216 215 214 214 218 222 222 220 223 228 232 238 243 246 248 251 254 257 262 266 268 270 274 280 285 290 295 296 297 299 301 301 300
251 147 168 230 224 206 209 202 205 323 275 220 218 229 240 243 232 213 211 230 233 212 200 204 189 157 167 187 197 208 222 220 214 226 240 239 238 241 236 234 238 241 239 237 234 227 218 214 215 215 216 219 220 218 215 214 214 216 218 219 220 223 227 232 238 242 245 248 251 252 256 261 266 270 272 275 279 284 290 293 293 294 296 299 300 296
143 162 178 206 217 203 148 156 49 6 328 272 244 236 238 239 233 223 219 230 243 237 214 208 204 189 190 202 198 194 220 236 225 218 231 241 242 238 236 237 239 242 244 243 237 229 223 222 222 221 222 223 223 219 215 214 214 214 216 218 220 222 226 231 237 241 244 246 248 251 255 259 264 269 274 277 280 284 289 292 295 297 297 299 302 298
151 202 180 135 212 240 198 168 166 166 249 242 228 228 235 234 224 227 231 227 233 231 216 216 229 221 216 221 204 183 212 241 237 220 224 237 243 242 240 240 241 243 245 245 238 231 229 229 228 228 227 227 225 220 217 215 213 212 215 218 220 222 226 229 234 237 240 243 246 249 253 257 261 266 271 276 282 287 288 289 292 294 294 297 300 294
185 204 192 176 215 227 189 182 191 201 225 235 223 222 231 224 202 216 233 231 231 231 214 209 225 234 237 233 216 200 212 240 240 226 223 238 245 246 246 244 241 241 243 239 231 228 230 229 228 228 228 227 225 221 218 215 213 212 214 217 220 223 227 228 230 234 238 241 244 247 251 255 259 263 268 273 281 287 291 292 289 286 289 295 296 288